Weather History for KCKI - April, 2013

Change the Weather History Date:

Friday, April 26, 2013

  Actual Average Record
Temperature  
Mean Temperature 66 °F -  
Max Temperature 78 °F 76 °F 89 °F (2012)
Min Temperature 55 °F 49 °F 55 °F (2013)
Cooling Degree Days 2    
Growing Degree Days 16 (Base 50)    
Moisture  
Dew Point 54 °F    
Average Humidity 71    
Maximum Humidity 100    
Minimum Humidity 38    
Precipitation  
Precipitation 0.00 in - - ()
Sea Level Pressure  
Sea Level Pressure 30.33 in    
Wind  
Wind Speed 4 mph (ENE)    
Max Wind Speed 9 mph    
Max Gust Speed -    
Visibility 8 miles    
Events Fog    
Averages and records for this station are not official NWS values.
T = Trace of Precipitation, MM = Missing Value Source: NWS Daily Summary

Daily Weather History Graph

Daily Weather History Graph

Search for Another Location

Airport or City:

Trip Planner

Search our weather history database for the weather conditions in past years. The results will help you decide how hot, cold, wet, or windy it might be!

Date:

Astronomy

Apr. 26, 2013 Rise Set
Actual Time 6:35 AM EDT 7:59 PM EDT
Civil Twilight 6:09 AM EDT 8:25 PM EDT
Nautical Twilight 5:38 AM EDT 8:56 PM EDT
Astronomical Twilight 5:05 AM EDT 9:29 PM EDT
Moon 9:16 PM EDT (4/26) 7:04 AM EDT (4/26)
Length of Visible Light 14h 15m
Length of Day
13h 23m
Full, 99% of the Moon is Illuminated
Apr 26
Full
May 2
Last Quarter
May 9
New
May 18
First Quarter
May 25
Full

Hourly Weather History & Observations

Time (EDT) Temp. Dew Point Humidity Pressure Visibility Wind Dir Wind Speed Gust Speed Precip Events Conditions
12:15 AM 62.6 °F 62.6 °F 100% 30.25 in 1.2 mi East 4.6 mph - N/A   Mist
12:35 AM 62.6 °F 62.6 °F 100% 30.25 in 1.2 mi ESE 6.9 mph - N/A   Mist
12:55 AM 62.6 °F 62.6 °F 100% 30.25 in 0.8 mi East 5.8 mph - N/A   Mist
1:15 AM 62.6 °F 62.6 °F 100% 30.25 in 3.0 mi East 4.6 mph - N/A   Clear
1:35 AM 62.6 °F 62.6 °F 100% 30.25 in 2.5 mi ENE 4.6 mph - N/A   Clear
1:55 AM 62.6 °F 62.6 °F 100% 30.25 in 0.8 mi East 5.8 mph - N/A   Mist
2:15 AM 62.6 °F 62.6 °F 100% 30.25 in 0.8 mi Calm Calm - N/A   Mist
2:35 AM 62.6 °F 62.6 °F 100% 30.25 in 1.0 mi Calm Calm - N/A   Mist
2:55 AM 60.8 °F 60.8 °F 100% 30.25 in 0.8 mi ENE 3.5 mph - N/A   Mist
3:15 AM 60.8 °F 60.8 °F 100% 30.25 in 0.8 mi ENE 5.8 mph - N/A   Mist
3:35 AM 60.8 °F 60.8 °F 100% 30.25 in 0.5 mi NNE 5.8 mph - N/A Fog Fog
3:55 AM 60.8 °F 60.8 °F 100% 30.25 in 0.5 mi NNE 4.6 mph - N/A Fog Fog
4:15 AM 60.8 °F 60.8 °F 100% 30.26 in 0.8 mi NE 3.5 mph - N/A   Mist
4:35 AM 59.0 °F 59.0 °F 100% 30.27 in 7.0 mi Calm Calm - N/A   Clear
4:55 AM 59.0 °F 59.0 °F 100% 30.27 in 7.0 mi Calm Calm - N/A   Clear
5:15 AM 59.0 °F 59.0 °F 100% 30.27 in 7.0 mi East 3.5 mph - N/A   Clear
5:35 AM 57.2 °F 57.2 °F 100% 30.28 in 7.0 mi Calm Calm - N/A   Clear
5:55 AM 57.2 °F 57.2 °F 100% 30.28 in 7.0 mi Calm Calm - N/A   Clear
6:15 AM 57.2 °F 57.2 °F 100% 30.30 in 7.0 mi Calm Calm - N/A   Clear
6:35 AM 57.2 °F 57.2 °F 100% 30.31 in 7.0 mi Calm Calm - N/A   Clear
6:55 AM 55.4 °F 55.4 °F 100% 30.31 in 7.0 mi Calm Calm - N/A   Clear
7:15 AM 57.2 °F 57.2 °F 100% 30.33 in 7.0 mi NNW 3.5 mph - N/A   Clear
7:35 AM 57.2 °F 57.2 °F 100% 30.34 in 7.0 mi North 3.5 mph - N/A   Clear
7:55 AM 57.2 °F 57.2 °F 100% 30.36 in 7.0 mi North 4.6 mph - N/A   Clear
8:15 AM 59.0 °F 57.2 °F 94% 30.36 in 10.0 mi North 3.5 mph - N/A   Clear
8:35 AM 59.0 °F 57.2 °F 94% 30.37 in 10.0 mi North 5.8 mph - N/A   Clear
8:55 AM 60.8 °F 55.4 °F 82% 30.38 in 10.0 mi NNE 5.8 mph - N/A   Clear
9:15 AM 60.8 °F 55.4 °F 82% 30.38 in 10.0 mi North 5.8 mph - N/A   Clear
9:35 AM 62.6 °F 53.6 °F 72% 30.38 in 10.0 mi NNE 5.8 mph - N/A   Clear
9:55 AM 64.4 °F 55.4 °F 73% 30.40 in 10.0 mi NNE 4.6 mph - N/A   Clear
10:15 AM 64.4 °F 55.4 °F 73% 30.40 in 10.0 mi NNE 4.6 mph - N/A   Clear
10:35 AM 66.2 °F 55.4 °F 68% 30.41 in 10.0 mi North 6.9 mph - N/A   Clear
10:55 AM 68.0 °F 55.4 °F 64% 30.41 in 10.0 mi NNE 4.6 mph - N/A   Clear
11:15 AM 69.8 °F 53.6 °F 56% 30.41 in 10.0 mi ENE 5.8 mph - N/A   Clear
11:35 AM 69.8 °F 53.6 °F 56% 30.41 in 10.0 mi East 9.2 mph - N/A   Clear
12:15 PM 69.8 °F 53.6 °F 56% 30.40 in 10.0 mi ENE 4.6 mph - N/A   Clear
12:35 PM 71.6 °F 53.6 °F 53% 30.39 in 10.0 mi ENE 9.2 mph - N/A   Clear
12:55 PM 71.6 °F 51.8 °F 50% 30.37 in 10.0 mi East 6.9 mph - N/A   Clear
1:15 PM 71.6 °F 51.8 °F 50% 30.37 in 10.0 mi SSE 3.5 mph - N/A   Clear
1:35 PM 73.4 °F 51.8 °F 47% 30.37 in 10.0 mi SE 8.1 mph - N/A   Clear
1:55 PM 73.4 °F 51.8 °F 47% 30.37 in 10.0 mi NNE 5.8 mph - N/A   Clear
2:15 PM 73.4 °F 51.8 °F 47% 30.37 in 10.0 mi ESE 5.8 mph - N/A   Clear
2:35 PM 75.2 °F 50.0 °F 41% 30.36 in 10.0 mi Calm Calm - N/A   Clear
2:55 PM 77.0 °F 51.8 °F 41% 30.36 in 10.0 mi NNE 3.5 mph - N/A   Clear
3:15 PM 77.0 °F 51.8 °F 41% 30.35 in 10.0 mi East 9.2 mph - N/A   Clear
3:35 PM 77.0 °F 51.8 °F 41% 30.34 in 10.0 mi North 5.8 mph - N/A   Clear
3:55 PM 77.0 °F 50.0 °F 39% 30.33 in 10.0 mi East 8.1 mph - N/A   Clear
4:15 PM 77.0 °F 50.0 °F 39% 30.32 in 10.0 mi Calm Calm - N/A   Clear
4:35 PM 78.8 °F 51.8 °F 39% 30.32 in 10.0 mi East 3.5 mph - N/A   Clear
4:55 PM 77.0 °F 50.0 °F 39% 30.32 in 10.0 mi Calm Calm - N/A   Clear
5:15 PM 75.2 °F 51.8 °F 44% 30.32 in 10.0 mi North 4.6 mph - N/A   Clear
5:35 PM 77.0 °F 50.0 °F 39% 30.31 in 10.0 mi Calm Calm - N/A   Clear
5:55 PM 75.2 °F 50.0 °F 41% 30.31 in 10.0 mi ESE 5.8 mph - N/A   Clear
6:15 PM 75.2 °F 48.2 °F 38% 30.31 in 10.0 mi ESE 5.8 mph - N/A   Clear
6:35 PM 73.4 °F 48.2 °F 41% 30.31 in 10.0 mi SE 9.2 mph - N/A   Clear
6:55 PM 71.6 °F 46.4 °F 41% 30.31 in 10.0 mi SE 8.1 mph - N/A   Clear
7:15 PM 71.6 °F 46.4 °F 41% 30.32 in 10.0 mi ESE 9.2 mph - N/A   Clear
7:35 PM 69.8 °F 46.4 °F 43% 30.33 in 10.0 mi SE 9.2 mph - N/A   Clear
7:55 PM 68.0 °F 46.4 °F 46% 30.34 in 10.0 mi ESE 5.8 mph - N/A   Clear
8:15 PM 66.2 °F 46.4 °F 49% 30.34 in 10.0 mi ESE 4.6 mph - N/A   Clear
8:35 PM 64.4 °F 44.6 °F 49% 30.36 in 10.0 mi ESE 5.8 mph - N/A   Clear
8:55 PM 64.4 °F 44.6 °F 49% 30.36 in 10.0 mi ESE 4.6 mph - N/A   Clear
9:15 PM 62.6 °F 46.4 °F 55% 30.37 in 10.0 mi Calm Calm - N/A   Clear
9:35 PM 60.8 °F 46.4 °F 59% 30.38 in 10.0 mi Calm Calm - N/A   Clear
9:55 PM 59.0 °F 48.2 °F 67% 30.38 in 10.0 mi Calm Calm - N/A   Clear
10:15 PM 59.0 °F 48.2 °F 67% 30.38 in 10.0 mi Calm Calm - N/A   Clear
10:35 PM 57.2 °F 48.2 °F 72% 30.38 in 10.0 mi Calm Calm - N/A   Clear
10:55 PM 57.2 °F 48.2 °F 72% 30.37 in 10.0 mi East 4.6 mph - N/A   Clear
11:15 PM 59.0 °F 50.0 °F 72% 30.35 in 10.0 mi East 4.6 mph - N/A   Clear
11:35 PM 57.2 °F 50.0 °F 77% 30.34 in 10.0 mi East 4.6 mph - N/A   Clear
11:55 PM 55.4 °F 50.0 °F 82% 30.35 in 10.0 mi East 3.5 mph - N/A   Clear